Weather History for Bentonville, AR

Change the Weather History Date:

Monday, January 20, 2014

  Actual Average Record
Temperature  
Mean Temperature 45 °F -  
Max Temperature 60 °F 44 °F 68 °F (1972)
Min Temperature 30 °F 21 °F -12 °F (1985)
Degree Days  
Heating Degree Days 20    
Moisture  
Dew Point 23 °F    
Average Humidity 42    
Maximum Humidity 75    
Minimum Humidity 26    
Precipitation  
Precipitation 0.00 in - - ()
Sea Level Pressure  
Sea Level Pressure 29.95 in    
Wind  
Wind Speed 6 mph (NW)    
Max Wind Speed 20 mph    
Max Gust Speed 29 mph    
Visibility 10 miles    
Events      
Averages and records for this station are not official NWS values.
T = Trace of Precipitation, MM = Missing Value Source: NWS Daily Summary

Daily Weather History Graph

Daily Weather History Graph

Search for Another Location

Airport:

Trip Planner

Search our weather history database for the weather conditions in past years. The results will help you decide how hot, cold, wet, or windy it might be!

Date:

Astronomy

Jan. 20, 2014 Rise Set
Actual Time 7:25 AM CST 5:30 PM CST
Civil Twilight 6:57 AM CST 5:58 PM CST
Nautical Twilight 6:26 AM CST 6:29 PM CST
Astronomical Twilight 5:55 AM CST 7:00 PM CST
Moon 9:56 PM CST (1/20) 9:34 AM CST (1/20)
Length of Visible Light 11h 00m
Length of Day
10h 04m
Waning Gibbous, 82% of the Moon is Illuminated
Jan 20
Waning Gibbous
Jan 23
Last Quarter
Jan 30
New
Feb 6
First Quarter
Feb 14
Full

Hourly Weather History & Observations

Time (CST) Temp. Windchill Dew Point Humidity Pressure Visibility Wind Dir Wind Speed Gust Speed Precip Events Conditions
12:15 AM 44.6 °F 41.4 °F 23.0 °F 43% 29.93 in 10.0 mi South 5.8 mph - N/A   Clear
12:35 AM 42.8 °F 39.3 °F 23.0 °F 46% 29.92 in 10.0 mi SSW 5.8 mph - N/A   Clear
12:55 AM 42.8 °F 39.3 °F 23.0 °F 46% 29.91 in 10.0 mi SSW 5.8 mph - N/A   Clear
1:15 AM 42.8 °F 39.3 °F 23.0 °F 46% 29.90 in 10.0 mi SSW 5.8 mph - N/A   Clear
1:35 AM 42.8 °F 39.3 °F 23.0 °F 46% 29.90 in 10.0 mi SSW 5.8 mph - N/A   Clear
1:55 AM 44.6 °F 40.7 °F 23.0 °F 43% 29.89 in 10.0 mi SSW 6.9 mph - N/A   Clear
2:15 AM 44.6 °F 41.4 °F 23.0 °F 43% 29.89 in 10.0 mi SSW 5.8 mph - N/A   Clear
2:35 AM 44.6 °F 42.2 °F 23.0 °F 43% 29.89 in 10.0 mi SSW 4.6 mph - N/A   Clear
2:55 AM 42.8 °F 40.1 °F 21.2 °F 42% 29.89 in 10.0 mi SSW 4.6 mph - N/A   Clear
3:15 AM 41.0 °F 39.0 °F 21.2 °F 45% 29.89 in 10.0 mi SSW 3.5 mph - N/A   Clear
3:35 AM 41.0 °F - 21.2 °F 45% 29.89 in 10.0 mi Calm Calm - N/A   Clear
3:55 AM 37.4 °F 34.9 °F 21.2 °F 52% 29.88 in 10.0 mi SW 3.5 mph - N/A   Clear
4:15 AM 39.2 °F - 21.2 °F 49% 29.88 in 10.0 mi Calm Calm - N/A   Clear
4:35 AM 35.6 °F - 23.0 °F 60% 29.88 in 10.0 mi Calm Calm - N/A   Clear
4:55 AM 33.8 °F 30.8 °F 21.2 °F 60% 29.88 in 10.0 mi North 3.5 mph - N/A   Clear
5:15 AM 30.2 °F 23.4 °F 21.2 °F 69% 29.89 in 10.0 mi NNE 6.9 mph - N/A   Clear
5:35 AM 30.2 °F 26.7 °F 21.2 °F 69% 29.89 in 10.0 mi NNE 3.5 mph - N/A   Clear
5:55 AM 33.8 °F - 21.2 °F 60% 29.89 in 10.0 mi Calm Calm - N/A   Clear
6:15 AM 32.0 °F - 21.2 °F 64% 29.89 in 10.0 mi Calm Calm - N/A   Clear
6:35 AM 30.2 °F - 23.0 °F 75% 29.90 in 10.0 mi Calm Calm - N/A   Clear
6:55 AM 30.2 °F 25.4 °F 23.0 °F 75% 29.89 in 10.0 mi SE 4.6 mph - N/A   Clear
7:15 AM 30.2 °F 23.4 °F 21.2 °F 69% 29.88 in 10.0 mi SE 6.9 mph - N/A   Clear
7:35 AM 32.0 °F 27.5 °F 21.2 °F 64% 29.88 in 10.0 mi SE 4.6 mph - N/A   Clear
7:55 AM 30.2 °F 24.3 °F 21.2 °F 69% 29.88 in 10.0 mi SSE 5.8 mph - N/A   Clear
8:15 AM 33.8 °F 29.6 °F 24.8 °F 70% 29.89 in 10.0 mi SE 4.6 mph - N/A   Clear
8:35 AM 39.2 °F 37.0 °F 26.6 °F 61% 29.89 in 10.0 mi SE 3.5 mph - N/A   Clear
8:55 AM 42.8 °F - 26.6 °F 53% 29.90 in 10.0 mi Calm Calm - N/A   Clear
9:15 AM 46.4 °F - 26.6 °F 46% 29.89 in 10.0 mi Calm Calm - N/A   Clear
9:35 AM 48.2 °F - 26.6 °F 43% 29.90 in 10.0 mi South 4.6 mph - N/A   Clear
9:55 AM 51.8 °F - 26.6 °F 38% 29.91 in 10.0 mi WSW 6.9 mph - N/A   Clear
10:15 AM 51.8 °F - 26.6 °F 38% 29.92 in 10.0 mi West 5.8 mph - N/A   Clear
10:35 AM 51.8 °F - 26.6 °F 38% 29.92 in 10.0 mi West 5.8 mph - N/A   Clear
10:55 AM 55.4 °F - 28.4 °F 36% 29.93 in 10.0 mi West 8.1 mph - N/A   Clear
11:15 AM 55.4 °F - 26.6 °F 33% 29.93 in 10.0 mi West 6.9 mph - N/A   Clear
11:35 AM 55.4 °F - 26.6 °F 33% 29.92 in 10.0 mi West 3.5 mph - N/A   Clear
11:55 AM 57.2 °F - 26.6 °F 31% 29.91 in 10.0 mi NW 4.6 mph - N/A   Clear
12:15 PM 57.2 °F - 26.6 °F 31% 29.90 in 10.0 mi Calm Calm - N/A   Clear
12:35 PM 57.2 °F - 26.6 °F 31% 29.89 in 10.0 mi Calm Calm - N/A   Clear
12:55 PM 59.0 °F - 26.6 °F 29% 29.88 in 10.0 mi Calm Calm - N/A   Clear
1:15 PM 60.8 °F - 26.6 °F 27% 29.87 in 10.0 mi North 5.8 mph - N/A   Clear
1:35 PM 60.8 °F - 26.6 °F 27% 29.87 in 10.0 mi NNE 8.1 mph - N/A   Clear
1:55 PM 60.8 °F - 26.6 °F 27% 29.87 in 10.0 mi NW 10.4 mph - N/A   Clear
2:15 PM 60.8 °F - 26.6 °F 27% 29.87 in 10.0 mi NNW 9.2 mph - N/A   Clear
2:35 PM 60.8 °F - 26.6 °F 27% 29.88 in 10.0 mi NNW 11.5 mph - N/A   Clear
2:55 PM 60.8 °F - 28.4 °F 29% 29.89 in 10.0 mi NNW 12.7 mph - N/A   Clear
3:15 PM 60.8 °F - 28.4 °F 29% 29.90 in 10.0 mi North 17.3 mph - N/A   Clear
3:35 PM 59.0 °F - 26.6 °F 29% 29.92 in 10.0 mi North 13.8 mph - N/A   Clear
3:55 PM 57.2 °F - 26.6 °F 31% 29.93 in 10.0 mi North 15.0 mph 19.6 mph N/A   Clear
4:15 PM 57.2 °F - 26.6 °F 31% 29.93 in 10.0 mi North 13.8 mph 19.6 mph N/A   Clear
4:35 PM 57.2 °F - 24.8 °F 29% 29.95 in 10.0 mi North 17.3 mph - N/A   Clear
4:55 PM 55.4 °F - 23.0 °F 29% 29.96 in 10.0 mi North 15.0 mph - N/A   Clear
5:15 PM 55.4 °F - 21.2 °F 26% 29.98 in 10.0 mi NNW 15.0 mph 19.6 mph N/A   Clear
5:35 PM 53.6 °F - 19.4 °F 26% 30.00 in 10.0 mi NNW 12.7 mph 21.9 mph N/A   Clear
5:55 PM 53.6 °F - 21.2 °F 28% 30.02 in 10.0 mi North 12.7 mph 19.6 mph N/A   Clear
6:15 PM 51.8 °F - 21.2 °F 30% 30.03 in 10.0 mi North 16.1 mph 20.7 mph N/A   Clear
6:35 PM 51.8 °F - 23.0 °F 33% 30.04 in 10.0 mi NNW 9.2 mph - N/A   Clear
6:55 PM 51.8 °F - 23.0 °F 33% 30.05 in 10.0 mi NNW 10.4 mph - N/A   Clear
7:15 PM 50.0 °F - 23.0 °F 35% 30.07 in 10.0 mi NNW 15.0 mph 19.6 mph N/A   Clear
7:35 PM 48.2 °F - 23.0 °F 37% 30.08 in 10.0 mi NNW 18.4 mph 27.6 mph N/A   Clear
7:55 PM 48.2 °F - 21.2 °F 34% 30.10 in 10.0 mi NNW 13.8 mph 28.8 mph N/A   Clear
8:15 PM 46.4 °F 39.0 °F 21.2 °F 37% 30.10 in 10.0 mi NNW 19.6 mph 28.8 mph N/A   Clear
8:35 PM 46.4 °F 40.4 °F 21.2 °F 37% 30.11 in 10.0 mi North 13.8 mph 21.9 mph N/A   Clear
8:55 PM 44.6 °F 40.2 °F 21.2 °F 39% 30.11 in 10.0 mi NNW 8.1 mph 16.1 mph N/A   Clear
9:15 PM 44.6 °F 40.2 °F 21.2 °F 39% 30.12 in 10.0 mi North 8.1 mph 16.1 mph N/A   Clear
9:35 PM 44.6 °F 40.2 °F 21.2 °F 39% 30.12 in 10.0 mi NNW 8.1 mph 16.1 mph N/A   Clear
9:55 PM 44.6 °F 40.2 °F 19.4 °F 37% 30.12 in 10.0 mi NW 8.1 mph - N/A   Clear
10:15 PM 42.8 °F 37.5 °F 19.4 °F 39% 30.12 in 10.0 mi NNW 9.2 mph - N/A   Clear
10:35 PM 42.8 °F 37.0 °F 19.4 °F 39% 30.13 in 10.0 mi NW 10.4 mph - N/A   Clear
10:55 PM 42.8 °F 34.8 °F 17.6 °F 36% 30.14 in 10.0 mi NNW 17.3 mph - N/A   Clear
11:15 PM 42.8 °F 36.6 °F 19.4 °F 39% 30.14 in 10.0 mi NW 11.5 mph 20.7 mph N/A   Clear
11:35 PM 41.0 °F 34.7 °F 19.4 °F 42% 30.13 in 10.0 mi NNW 10.4 mph 20.7 mph N/A   Clear
11:55 PM 39.2 °F 31.6 °F 19.4 °F 45% 30.14 in 10.0 mi NNW 12.7 mph 20.7 mph N/A   Clear